Location: Whitehorse
(60.7170°N, 135.0500°W)
Time: 22:33:47
(UTC-08:00)

Envisat - Pass Details

Date: 23 October 2019
Orbit: 764 x 766 km, 98.1° (Epoch: 12 November)

Event Time Altitude Azimuth Distance (km) Brightness Sun altitude
Rises 07:18:48 0° 23° (NNE) 3,247 6.6 -13.1°
Reaches altitude 10° 07:22:17 10° 48° (NE) 2,315 6.2 -12.7°
Maximum altitude 07:24:59 14° 80° (E) 2,028 6.5 -12.3°
Drops below altitude 10° 07:27:39 10° 112° (ESE) 2,306 6.7 -12.0°
Sets 07:31:06 0° 137° (SE) 3,226 7.0 -11.6°
